Snow/Ice From: 16-12-2017 16:00 Until: 17-12-2017 16:00 warning for: Snow/Ice Level: Yellow info button

Although rather usual in this region, locally or potentially dangerous phenomena are expected. (such as local winds, summer thunderstorms, rising streams or high waves) Be aware and pay attention to the latest weather updates, especially if you carry out activities exposed to weather or close to a stream or shoreline. 


Meteo18 Weather Cam more information Meteo18 Weather Cam


Thunder radar more information blitzortung!


warning for Snow/Ice more information rain snow radar


Visit our other weather sites:

Template documentation
and downloads

And another site



Weather Underground History page Text

Daily Summary for March 3, 2017 Units:  Metric    English   Both
« Previous Day
Next Day »
Daily Weekly Monthly Yearly Custom
  High: Low: Average:
Temperature: 16.8 °C 5.2 °C 10.5 °C
Dew Point: 9.7 °C 2.3 °C 5.8 °C
Humidity: 87 % 59 % 73 %
Wind Speed: 24.1 km/h 0.0 km/h 5.2 km/h
Wind Gust: 30.6 km/h - -
Wind:- - SE
Pressure: 1015.5 hPa 996.8 hPa -
Precipitation: 0.0 mm    
Historical Graphs
 
 
Tabular Data for March 3, 2017
Time Temperature Dew Point Pressure Wind Wind Speed Wind Gust Humidity Rainfall Rate (Hourly)
00:02 6.0 °C 2.6 °C 1015.5 hPa North 1.6 km/h 3.2 km/h 79 % 0.0 mm
00:07 5.9 °C 2.5 °C 1015.5 hPa Calm   3.2 km/h 79 % 0.0 mm
00:12 6.0 °C 2.6 °C 1015.5 hPa NNE 1.6 km/h 3.2 km/h 79 % 0.0 mm
00:17 6.1 °C 2.4 °C 1015.5 hPa NE 1.6 km/h 3.2 km/h 77 % 0.0 mm
00:22 6.4 °C 2.3 °C 1015.1 hPa NE 3.2 km/h 3.2 km/h 75 % 0.0 mm
00:27 6.6 °C 2.3 °C 1015.1 hPa Calm   3.2 km/h 74 % 0.0 mm
00:32 6.6 °C 2.3 °C 1015.1 hPa Calm   3.2 km/h 74 % 0.0 mm
00:42 6.4 °C 2.5 °C 1014.8 hPa Calm   1.6 km/h 76 % 0.0 mm
00:47 6.5 °C 2.6 °C 1014.8 hPa Calm   1.6 km/h 76 % 0.0 mm
00:52 6.3 °C 2.7 °C 1014.8 hPa Calm   1.6 km/h 78 % 0.0 mm
01:02 6.2 °C 2.6 °C 1014.4 hPa Calm   1.6 km/h 78 % 0.0 mm
01:07 6.2 °C 2.8 °C 1014.4 hPa Calm   1.6 km/h 79 % 0.0 mm
01:12 6.2 °C 2.8 °C 1014.8 hPa Calm   1.6 km/h 79 % 0.0 mm
01:17 6.3 °C 2.7 °C 1014.4 hPa Calm   1.6 km/h 78 % 0.0 mm
01:22 6.4 °C 2.7 °C 1014.4 hPa Calm   1.6 km/h 77 % 0.0 mm
01:27 6.6 °C 2.9 °C 1014.4 hPa Calm   1.6 km/h 77 % 0.0 mm
01:32 6.7 °C 2.8 °C 1014.4 hPa Calm   3.2 km/h 76 % 0.0 mm
01:37 6.8 °C 3.1 °C 1014.4 hPa Calm   4.8 km/h 77 % 0.0 mm
01:42 6.8 °C 3.1 °C 1014.4 hPa Calm   4.8 km/h 77 % 0.0 mm
01:47 6.8 °C 3.2 °C 1014.4 hPa Calm   3.2 km/h 78 % 0.0 mm
01:52 6.6 °C 3.2 °C 1014.4 hPa Calm   3.2 km/h 79 % 0.0 mm
01:57 6.4 °C 3.0 °C 1014.1 hPa Calm   1.6 km/h 79 % 0.0 mm
02:02 6.5 °C 2.9 °C 1014.1 hPa NNE 1.6 km/h 1.6 km/h 78 % 0.0 mm
02:07 6.4 °C 3.2 °C 1013.8 hPa Calm   3.2 km/h 80 % 0.0 mm
02:12 6.3 °C 3.1 °C 1013.8 hPa NNE 1.6 km/h 3.2 km/h 80 % 0.0 mm
02:17 6.1 °C 3.1 °C 1013.8 hPa Calm   3.2 km/h 81 % 0.0 mm
02:22 6.0 °C 2.8 °C 1013.4 hPa Calm   3.2 km/h 80 % 0.0 mm
02:27 6.2 °C 3.0 °C 1013.4 hPa Calm   3.2 km/h 80 % 0.0 mm
02:32 6.2 °C 3.0 °C 1013.4 hPa Calm   1.6 km/h 80 % 0.0 mm
02:37 6.3 °C 3.1 °C 1013.1 hPa Calm   1.6 km/h 80 % 0.0 mm
02:42 6.1 °C 3.1 °C 1013.1 hPa Calm   1.6 km/h 81 % 0.0 mm
02:47 5.8 °C 3.1 °C 1013.1 hPa Calm   1.6 km/h 83 % 0.0 mm
02:52 5.7 °C 3.0 °C 1012.8 hPa Calm   1.6 km/h 83 % 0.0 mm
02:57 5.8 °C 3.0 °C 1012.8 hPa Calm   1.6 km/h 82 % 0.0 mm
03:02 5.8 °C 3.0 °C 1012.8 hPa Calm   1.6 km/h 82 % 0.0 mm
03:07 5.7 °C 2.9 °C 1012.8 hPa Calm   1.6 km/h 82 % 0.0 mm
03:12 5.8 °C 3.0 °C 1012.8 hPa Calm   1.6 km/h 82 % 0.0 mm
03:17 5.9 °C 3.1 °C 1012.8 hPa Calm   1.6 km/h 82 % 0.0 mm
03:22 6.1 °C 3.3 °C 1012.8 hPa Calm   1.6 km/h 82 % 0.0 mm
03:27 6.1 °C 3.1 °C 1012.4 hPa Calm   1.6 km/h 81 % 0.0 mm
03:32 6.0 °C 3.0 °C 1012.4 hPa Calm   1.6 km/h 81 % 0.0 mm
03:37 6.1 °C 3.1 °C 1012.1 hPa Calm   1.6 km/h 81 % 0.0 mm
03:42 6.0 °C 3.2 °C 1012.1 hPa Calm   3.2 km/h 82 % 0.0 mm
03:47 5.9 °C 3.1 °C 1012.1 hPa Calm   3.2 km/h 82 % 0.0 mm
03:52 5.9 °C 3.1 °C 1012.1 hPa Calm   3.2 km/h 82 % 0.0 mm
03:57 6.0 °C 3.2 °C 1012.1 hPa Calm   1.6 km/h 82 % 0.0 mm
04:02 6.0 °C 3.3 °C 1012.1 hPa Calm   1.6 km/h 83 % 0.0 mm
04:07 6.0 °C 3.3 °C 1011.7 hPa Calm   1.6 km/h 83 % 0.0 mm
04:12 6.1 °C 3.4 °C 1011.7 hPa Calm   1.6 km/h 83 % 0.0 mm
04:17 5.9 °C 3.2 °C 1011.7 hPa Calm   1.6 km/h 83 % 0.0 mm
04:22 5.9 °C 3.2 °C 1011.7 hPa Calm   1.6 km/h 83 % 0.0 mm
04:32 6.1 °C 3.4 °C 1011.4 hPa Calm   1.6 km/h 83 % 0.0 mm
04:37 6.1 °C 3.4 °C 1011.4 hPa Calm   1.6 km/h 83 % 0.0 mm
04:42 5.8 °C 3.1 °C 1011.4 hPa Calm   1.6 km/h 83 % 0.0 mm
04:47 5.6 °C 3.1 °C 1011.4 hPa Calm   1.6 km/h 84 % 0.0 mm
04:52 5.6 °C 3.1 °C 1011.1 hPa Calm     84 % 0.0 mm
04:57 5.6 °C 3.3 °C 1011.1 hPa Calm   1.6 km/h 85 % 0.0 mm
05:02 5.6 °C 3.3 °C 1011.1 hPa Calm   1.6 km/h 85 % 0.0 mm
05:12 5.7 °C 3.2 °C 1010.7 hPa Calm   1.6 km/h 84 % 0.0 mm
05:17 5.5 °C 3.2 °C 1010.7 hPa Calm   1.6 km/h 85 % 0.0 mm
05:22 5.4 °C 3.1 °C 1010.7 hPa Calm     85 % 0.0 mm
05:32 5.3 °C 3.0 °C 1010.4 hPa Calm   3.2 km/h 85 % 0.0 mm
05:37 5.2 °C 3.1 °C 1010.0 hPa Calm   3.2 km/h 86 % 0.0 mm
05:42 5.5 °C 3.3 °C 1010.0 hPa SSE 1.6 km/h 4.8 km/h 86 % 0.0 mm
05:47 5.6 °C 3.4 °C 1010.0 hPa SE 3.2 km/h 6.4 km/h 86 % 0.0 mm
05:52 5.7 °C 3.5 °C 1010.0 hPa East 1.6 km/h 6.4 km/h 86 % 0.0 mm
05:57 5.8 °C 3.5 °C 1010.0 hPa ESE 1.6 km/h 6.4 km/h 85 % 0.0 mm
06:02 5.7 °C 3.4 °C 1010.0 hPa Calm   4.8 km/h 85 % 0.0 mm
06:12 5.4 °C 3.2 °C 1009.7 hPa Calm   3.2 km/h 86 % 0.0 mm
06:17 5.3 °C 3.1 °C 1009.7 hPa Calm   1.6 km/h 86 % 0.0 mm
06:22 5.4 °C 3.4 °C 1009.7 hPa Calm   1.6 km/h 87 % 0.0 mm
06:27 5.4 °C 3.4 °C 1009.4 hPa Calm   1.6 km/h 87 % 0.0 mm
06:32 5.5 °C 3.5 °C 1009.4 hPa Calm   1.6 km/h 87 % 0.0 mm
06:37 5.7 °C 3.7 °C 1009.4 hPa Calm   6.4 km/h 87 % 0.0 mm
06:42 5.9 °C 3.7 °C 1009.4 hPa Calm   6.4 km/h 86 % 0.0 mm
06:47 6.0 °C 3.7 °C 1009.4 hPa Calm   6.4 km/h 85 % 0.0 mm
06:52 5.9 °C 3.6 °C 1009.4 hPa Calm   1.6 km/h 85 % 0.0 mm
07:02 6.1 °C 3.8 °C 1008.7 hPa Calm   3.2 km/h 85 % 0.0 mm
07:07 6.0 °C 3.7 °C 1008.7 hPa Calm   3.2 km/h 85 % 0.0 mm
07:12 5.9 °C 3.6 °C 1008.7 hPa Calm   3.2 km/h 85 % 0.0 mm
07:17 5.7 °C 3.5 °C 1008.7 hPa Calm   3.2 km/h 86 % 0.0 mm
07:22 5.7 °C 3.7 °C 1008.4 hPa Calm   1.6 km/h 87 % 0.0 mm
07:27 5.8 °C 3.6 °C 1008.4 hPa Calm   1.6 km/h 86 % 0.0 mm
07:32 5.9 °C 3.7 °C 1008.4 hPa Calm   4.8 km/h 86 % 0.0 mm
07:37 5.8 °C 3.5 °C 1008.4 hPa Calm   4.8 km/h 85 % 0.0 mm
07:42 5.8 °C 3.6 °C 1008.4 hPa Calm   4.8 km/h 86 % 0.0 mm
07:47 6.1 °C 3.8 °C 1008.4 hPa WNW 1.6 km/h 1.6 km/h 85 % 0.0 mm
07:52 6.2 °C 3.7 °C 1008.4 hPa Calm   1.6 km/h 84 % 0.0 mm
07:57 6.2 °C 3.7 °C 1008.0 hPa Calm   1.6 km/h 84 % 0.0 mm
08:02 6.3 °C 3.8 °C 1008.0 hPa Calm   1.6 km/h 84 % 0.0 mm
08:07 6.3 °C 3.8 °C 1008.0 hPa Calm   1.6 km/h 84 % 0.0 mm
08:12 6.4 °C 3.7 °C 1008.0 hPa Calm   1.6 km/h 83 % 0.0 mm
08:17 6.4 °C 3.7 °C 1008.0 hPa Calm   1.6 km/h 83 % 0.0 mm
08:22 6.4 °C 3.9 °C 1007.7 hPa Calm   1.6 km/h 84 % 0.0 mm
08:27 6.4 °C 3.9 °C 1007.7 hPa Calm   1.6 km/h 84 % 0.0 mm
08:32 6.7 °C 4.0 °C 1007.7 hPa Calm   1.6 km/h 83 % 0.0 mm
08:37 6.9 °C 4.2 °C 1007.7 hPa Calm   1.6 km/h 83 % 0.0 mm
08:42 7.2 °C 4.5 °C 1007.3 hPa Calm   1.6 km/h 83 % 0.0 mm
08:47 7.4 °C 4.4 °C 1007.3 hPa Calm   3.2 km/h 81 % 0.0 mm
08:52 7.7 °C 4.6 °C 1007.3 hPa Calm   3.2 km/h 81 % 0.0 mm
08:57 7.8 °C 4.7 °C 1007.3 hPa Calm   3.2 km/h 81 % 0.0 mm
09:02 7.9 °C 4.8 °C 1007.3 hPa Calm   3.2 km/h 81 % 0.0 mm
09:12 8.2 °C 5.0 °C 1007.0 hPa Calm   4.8 km/h 80 % 0.0 mm
09:17 8.3 °C 5.1 °C 1007.0 hPa Calm   4.8 km/h 80 % 0.0 mm
09:22 8.4 °C 5.2 °C 1007.0 hPa Calm   3.2 km/h 80 % 0.0 mm
09:27 8.6 °C 5.3 °C 1007.0 hPa Calm   1.6 km/h 80 % 0.0 mm
09:32 8.7 °C 5.3 °C 1006.7 hPa Calm   1.6 km/h 79 % 0.0 mm
09:37 8.8 °C 5.5 °C 1006.7 hPa SSE 1.6 km/h 1.6 km/h 80 % 0.0 mm
09:42 8.8 °C 5.4 °C 1006.7 hPa SE 1.6 km/h 3.2 km/h 79 % 0.0 mm
09:47 8.9 °C 5.5 °C 1006.7 hPa SE 1.6 km/h 4.8 km/h 79 % 0.0 mm
09:52 8.9 °C 5.5 °C 1006.7 hPa SE 3.2 km/h 4.8 km/h 79 % 0.0 mm
09:57 9.1 °C 5.7 °C 1006.3 hPa SE 3.2 km/h 4.8 km/h 79 % 0.0 mm
10:02 9.2 °C 5.6 °C 1006.3 hPa SE 6.4 km/h 6.4 km/h 78 % 0.0 mm
10:12 9.4 °C 5.9 °C 1006.0 hPa SE 4.8 km/h 9.7 km/h 79 % 0.0 mm
10:17 9.5 °C 5.9 °C 1006.0 hPa ESE 9.7 km/h 9.7 km/h 78 % 0.0 mm
10:22 9.5 °C 5.7 °C 1006.0 hPa East 6.4 km/h 9.7 km/h 77 % 0.0 mm
10:27 9.6 °C 5.8 °C 1006.0 hPa SE 6.4 km/h 9.7 km/h 77 % 0.0 mm
10:32 9.6 °C 6.0 °C 1006.0 hPa SSE 1.6 km/h 11.3 km/h 78 % 0.0 mm
10:37 9.7 °C 6.0 °C 1006.0 hPa SE 4.8 km/h 14.5 km/h 78 % 0.0 mm
10:42 9.8 °C 6.0 °C 1005.6 hPa SE 3.2 km/h 14.5 km/h 77 % 0.0 mm
10:52 10.0 °C 6.2 °C 1005.6 hPa South 4.8 km/h 8.0 km/h 77 % 0.0 mm
10:57 10.1 °C 6.1 °C 1005.6 hPa ESE 4.8 km/h 9.7 km/h 76 % 0.0 mm
11:02 10.3 °C 6.3 °C 1005.6 hPa SE 3.2 km/h 9.7 km/h 76 % 0.0 mm
11:07 10.4 °C 6.2 °C 1005.3 hPa SE 1.6 km/h 9.7 km/h 75 % 0.0 mm
11:12 10.6 °C 6.5 °C 1005.3 hPa ESE 1.6 km/h 12.9 km/h 76 % 0.0 mm
11:17 10.8 °C 6.5 °C 1005.0 hPa ESE 4.8 km/h 12.9 km/h 75 % 0.0 mm
11:22 11.0 °C 6.5 °C 1005.3 hPa SE 4.8 km/h 8.0 km/h 74 % 0.0 mm
11:27 11.2 °C 6.9 °C 1005.0 hPa ESE 6.4 km/h 6.4 km/h 75 % 0.0 mm
11:32 11.3 °C 6.6 °C 1005.0 hPa SE 4.8 km/h 6.4 km/h 73 % 0.0 mm
11:37 11.4 °C 6.7 °C 1004.6 hPa ESE 4.8 km/h 9.7 km/h 73 % 0.0 mm
11:42 11.6 °C 7.1 °C 1004.6 hPa SE 4.8 km/h 11.3 km/h 74 % 0.0 mm
11:47 11.7 °C 7.0 °C 1004.6 hPa SE 3.2 km/h 11.3 km/h 73 % 0.0 mm
11:52 11.9 °C 7.2 °C 1004.6 hPa ESE 3.2 km/h 11.3 km/h 73 % 0.0 mm
11:57 12.1 °C 7.6 °C 1004.3 hPa SE 1.6 km/h 11.3 km/h 74 % 0.0 mm
12:02 12.3 °C 7.4 °C 1004.3 hPa ESE 6.4 km/h 9.7 km/h 72 % 0.0 mm
12:07 12.4 °C 7.9 °C 1004.3 hPa SE 3.2 km/h 12.9 km/h 74 % 0.0 mm
12:12 12.6 °C 7.9 °C 1004.3 hPa SE 3.2 km/h 12.9 km/h 73 % 0.0 mm
12:17 12.8 °C 8.3 °C 1003.9 hPa East 4.8 km/h 12.9 km/h 74 % 0.0 mm
12:22 13.0 °C 8.3 °C 1003.9 hPa East 6.4 km/h 9.7 km/h 73 % 0.0 mm
12:27 12.9 °C 7.8 °C 1003.9 hPa ESE 3.2 km/h 9.7 km/h 71 % 0.0 mm
12:32 13.0 °C 8.1 °C 1003.9 hPa ENE 8.0 km/h 12.9 km/h 72 % 0.0 mm
12:42 13.3 °C 7.7 °C 1003.6 hPa ESE 6.4 km/h 17.7 km/h 69 % 0.0 mm
12:47 13.4 °C 7.8 °C 1003.3 hPa East 8.0 km/h 17.7 km/h 69 % 0.0 mm
12:52 13.6 °C 8.4 °C 1003.3 hPa ESE 8.0 km/h 19.3 km/h 71 % 0.0 mm
12:57 13.6 °C 8.0 °C 1003.3 hPa SE 9.7 km/h 19.3 km/h 69 % 0.0 mm
13:02 13.7 °C 8.5 °C 1003.3 hPa SE 12.9 km/h 19.3 km/h 71 % 0.0 mm
13:07 13.8 °C 8.4 °C 1002.9 hPa SE 11.3 km/h 17.7 km/h 70 % 0.0 mm
13:12 13.9 °C 8.9 °C 1002.9 hPa SE 8.0 km/h 16.1 km/h 72 % 0.0 mm
13:17 14.1 °C 8.7 °C 1002.9 hPa SE 4.8 km/h 16.1 km/h 70 % 0.0 mm
13:22 14.3 °C 9.1 °C 1002.9 hPa SE 8.0 km/h 16.1 km/h 71 % 0.0 mm
13:27 14.4 °C 9.0 °C 1002.6 hPa SE 6.4 km/h 16.1 km/h 70 % 0.0 mm
13:32 14.6 °C 8.8 °C 1002.6 hPa SE 9.7 km/h 14.5 km/h 68 % 0.0 mm
13:37 14.9 °C 9.0 °C 1002.6 hPa SE 4.8 km/h 14.5 km/h 68 % 0.0 mm
13:42 15.1 °C 9.5 °C 1002.3 hPa SE 4.8 km/h 12.9 km/h 69 % 0.0 mm
13:47 15.4 °C 9.3 °C 1002.3 hPa SSE 6.4 km/h 12.9 km/h 67 % 0.0 mm
13:52 15.6 °C 8.3 °C 1001.9 hPa SE 9.7 km/h 16.1 km/h 62 % 0.0 mm
13:57 15.8 °C 8.5 °C 1001.9 hPa SSE 9.7 km/h 24.1 km/h 62 % 0.0 mm
14:02 15.8 °C 8.5 °C 1001.9 hPa SE 12.9 km/h 24.1 km/h 62 % 0.0 mm
14:07 15.9 °C 8.4 °C 1001.9 hPa SE 8.0 km/h 27.4 km/h 61 % 0.0 mm
14:12 16.0 °C 9.0 °C 1001.9 hPa SE 8.0 km/h 27.4 km/h 63 % 0.0 mm
14:22 16.3 °C 9.0 °C 1001.6 hPa SE 9.7 km/h 17.7 km/h 62 % 0.0 mm
14:27 16.3 °C 8.5 °C 1001.6 hPa SSE 12.9 km/h 20.9 km/h 60 % 0.0 mm
14:32 16.3 °C 9.2 °C 1001.2 hPa SE 8.0 km/h 20.9 km/h 63 % 0.0 mm
14:37 16.3 °C 8.8 °C 1001.2 hPa SE 19.3 km/h 22.5 km/h 61 % 0.0 mm
14:42 16.3 °C 8.3 °C 1000.9 hPa SE 8.0 km/h 22.5 km/h 59 % 0.0 mm
14:47 16.4 °C 9.3 °C 1001.2 hPa ESE 12.9 km/h 22.5 km/h 63 % 0.0 mm
14:52 16.4 °C 8.6 °C 1000.9 hPa SSE 6.4 km/h 19.3 km/h 60 % 0.0 mm
15:02 16.5 °C 9.2 °C 1000.9 hPa South 11.3 km/h 20.9 km/h 62 % 0.0 mm
15:07 16.5 °C 9.0 °C 1000.6 hPa SE 6.4 km/h 20.9 km/h 61 % 0.0 mm
15:12 16.6 °C 8.8 °C 1000.6 hPa SSE 11.3 km/h 24.1 km/h 60 % 0.0 mm
15:17 16.6 °C 9.3 °C 1000.6 hPa SSE 4.8 km/h 24.1 km/h 62 % 0.0 mm
15:22 16.7 °C 8.9 °C 1000.6 hPa ESE 12.9 km/h 24.1 km/h 60 % 0.0 mm
15:27 16.7 °C 9.4 °C 1000.6 hPa SSE 6.4 km/h 20.9 km/h 62 % 0.0 mm
15:32 16.7 °C 9.4 °C 1000.2 hPa SE 12.9 km/h 20.9 km/h 62 % 0.0 mm
15:37 16.7 °C 9.6 °C 1000.2 hPa SSE 14.5 km/h 20.9 km/h 63 % 0.0 mm
15:42 16.8 °C 9.2 °C 1000.2 hPa South 11.3 km/h 24.1 km/h 61 % 0.0 mm
15:47 16.8 °C 9.7 °C 1000.2 hPa SE 12.9 km/h 24.1 km/h 63 % 0.0 mm
15:52 16.8 °C 9.5 °C 1000.2 hPa SSE 6.4 km/h 24.1 km/h 62 % 0.0 mm
16:02 16.6 °C 9.3 °C 999.9 hPa SE 24.1 km/h 24.1 km/h 62 % 0.0 mm
16:12 16.6 °C 9.5 °C 999.5 hPa SE 12.9 km/h 25.7 km/h 63 % 0.0 mm
16:17 16.6 °C 9.3 °C 999.5 hPa SSE 6.4 km/h 25.7 km/h 62 % 0.0 mm
16:22 16.6 °C 9.0 °C 999.5 hPa SSE 11.3 km/h 27.4 km/h 61 % 0.0 mm
16:32 16.4 °C 8.6 °C 999.5 hPa SSE 12.9 km/h 24.1 km/h 60 % 0.0 mm
16:37 16.3 °C 8.5 °C 999.5 hPa SE 11.3 km/h 24.1 km/h 60 % 0.0 mm
16:42 16.2 °C 8.7 °C 999.2 hPa ESE 8.0 km/h 24.1 km/h 61 % 0.0 mm
16:47 16.1 °C 8.8 °C 999.2 hPa SW 9.7 km/h 24.1 km/h 62 % 0.0 mm
16:52 16.2 °C 8.4 °C 999.2 hPa SE 11.3 km/h 22.5 km/h 60 % 0.0 mm
16:57 16.1 °C 8.8 °C 999.2 hPa SE 11.3 km/h 30.6 km/h 62 % 0.0 mm
17:02 15.9 °C 8.1 °C 999.2 hPa SSE 6.4 km/h 30.6 km/h 60 % 0.0 mm
17:07 15.9 °C 8.4 °C 998.9 hPa SSE 6.4 km/h 30.6 km/h 61 % 0.0 mm
17:12 15.8 °C 8.3 °C 998.9 hPa SE 8.0 km/h 25.7 km/h 61 % 0.0 mm
17:17 15.7 °C 8.4 °C 998.9 hPa ENE 8.0 km/h 25.7 km/h 62 % 0.0 mm
17:22 15.6 °C 8.3 °C 998.5 hPa ESE 12.9 km/h 25.7 km/h 62 % 0.0 mm
17:27 15.4 °C 8.4 °C 998.5 hPa SSE 9.7 km/h 20.9 km/h 63 % 0.0 mm
17:32 15.3 °C 8.3 °C 998.5 hPa SE 4.8 km/h 17.7 km/h 63 % 0.0 mm
17:42 15.2 °C 8.0 °C 998.5 hPa East 9.7 km/h 22.5 km/h 62 % 0.0 mm
17:47 15.1 °C 7.9 °C 998.5 hPa SSE 11.3 km/h 22.5 km/h 62 % 0.0 mm
17:52 15.0 °C 8.0 °C 998.5 hPa SE 11.3 km/h 25.7 km/h 63 % 0.0 mm
17:57 14.9 °C 7.9 °C 998.2 hPa SSE 9.7 km/h 25.7 km/h 63 % 0.0 mm
18:02 14.8 °C 7.8 °C 998.2 hPa SE 8.0 km/h 20.9 km/h 63 % 0.0 mm
18:07 14.6 °C 7.6 °C 998.2 hPa ESE 16.1 km/h 20.9 km/h 63 % 0.0 mm
18:12 14.6 °C 7.4 °C 997.9 hPa ESE 14.5 km/h 17.7 km/h 62 % 0.0 mm
18:17 14.6 °C 7.6 °C 997.9 hPa ESE 6.4 km/h 24.1 km/h 63 % 0.0 mm
18:22 14.4 °C 7.4 °C 997.9 hPa ESE 11.3 km/h 24.1 km/h 63 % 0.0 mm
18:27 14.3 °C 7.1 °C 997.9 hPa SSE 11.3 km/h 20.9 km/h 62 % 0.0 mm
18:32 14.3 °C 7.1 °C 997.9 hPa SSE 11.3 km/h 20.9 km/h 62 % 0.0 mm
18:42 14.0 °C 7.3 °C 997.9 hPa SE 12.9 km/h 22.5 km/h 64 % 0.0 mm
18:47 14.0 °C 7.3 °C 997.9 hPa East 12.9 km/h 20.9 km/h 64 % 0.0 mm
18:52 13.9 °C 7.2 °C 997.9 hPa SE 8.0 km/h 19.3 km/h 64 % 0.0 mm
19:02 13.7 °C 7.5 °C 997.9 hPa SE 6.4 km/h 22.5 km/h 66 % 0.0 mm
19:07 13.6 °C 7.4 °C 997.9 hPa SSE 6.4 km/h 22.5 km/h 66 % 0.0 mm
19:12 13.6 °C 7.4 °C 997.9 hPa SE 16.1 km/h 22.5 km/h 66 % 0.0 mm
19:22 13.4 °C 7.2 °C 998.2 hPa SSE 4.8 km/h 22.5 km/h 66 % 0.0 mm
19:27 13.3 °C 7.1 °C 998.2 hPa SSW 8.0 km/h 19.3 km/h 66 % 0.0 mm
19:32 13.4 °C 7.0 °C 998.2 hPa SSE 6.4 km/h 20.9 km/h 65 % 0.0 mm
19:37 13.3 °C 6.9 °C 998.2 hPa SSE 4.8 km/h 20.9 km/h 65 % 0.0 mm
19:42 13.3 °C 6.9 °C 997.9 hPa SSE 8.0 km/h 20.9 km/h 65 % 0.0 mm
19:47 13.2 °C 7.0 °C 997.9 hPa SE 4.8 km/h 20.9 km/h 66 % 0.0 mm
19:52 12.9 °C 6.7 °C 997.9 hPa SSE 6.4 km/h 20.9 km/h 66 % 0.0 mm
19:57 13.0 °C 6.8 °C 997.9 hPa South 11.3 km/h 17.7 km/h 66 % 0.0 mm
20:02 12.9 °C 6.5 °C 997.9 hPa SSE 9.7 km/h 16.1 km/h 65 % 0.0 mm
20:07 12.9 °C 6.5 °C 997.9 hPa South 6.4 km/h 16.1 km/h 65 % 0.0 mm
20:12 12.9 °C 6.7 °C 997.9 hPa SE 12.9 km/h 16.1 km/h 66 % 0.0 mm
20:17 12.8 °C 6.6 °C 997.9 hPa SSE 16.1 km/h 19.3 km/h 66 % 0.0 mm
20:22 12.9 °C 6.7 °C 997.9 hPa SSE 17.7 km/h 19.3 km/h 66 % 0.0 mm
20:27 12.9 °C 6.5 °C 997.9 hPa South 4.8 km/h 24.1 km/h 65 % 0.0 mm
20:32 12.8 °C 6.6 °C 997.9 hPa SE 12.9 km/h 24.1 km/h 66 % 0.0 mm
20:37 12.7 °C 6.5 °C 997.9 hPa SE 8.0 km/h 19.3 km/h 66 % 0.0 mm
20:42 12.6 °C 6.4 °C 997.9 hPa SSE 8.0 km/h 17.7 km/h 66 % 0.0 mm
20:47 12.5 °C 6.5 °C 997.9 hPa SSE 8.0 km/h 14.5 km/h 67 % 0.0 mm
20:52 12.5 °C 6.5 °C 997.9 hPa SSE 4.8 km/h 17.7 km/h 67 % 0.0 mm
20:57 12.4 °C 6.4 °C 997.5 hPa ESE 4.8 km/h 17.7 km/h 67 % 0.0 mm
21:02 12.5 °C 6.5 °C 997.9 hPa South 4.8 km/h 19.3 km/h 67 % 0.0 mm
21:07 12.5 °C 6.8 °C 997.5 hPa South 9.7 km/h 19.3 km/h 68 % 0.0 mm
21:12 12.5 °C 6.5 °C 997.5 hPa SE 6.4 km/h 19.3 km/h 67 % 0.0 mm
21:17 12.4 °C 6.7 °C 997.5 hPa SE 8.0 km/h 20.9 km/h 68 % 0.0 mm
21:22 12.4 °C 6.7 °C 997.5 hPa South 8.0 km/h 20.9 km/h 68 % 0.0 mm
21:27 12.4 °C 6.7 °C 997.5 hPa SE 16.1 km/h 24.1 km/h 68 % 0.0 mm
21:32 12.4 °C 6.7 °C 997.5 hPa SE 9.7 km/h 24.1 km/h 68 % 0.0 mm
21:37 12.4 °C 6.7 °C 997.5 hPa SE 4.8 km/h 29.0 km/h 68 % 0.0 mm
21:42 12.4 °C 6.7 °C 997.5 hPa ESE 11.3 km/h 29.0 km/h 68 % 0.0 mm
21:47 12.5 °C 6.5 °C 997.5 hPa SE 8.0 km/h 29.0 km/h 67 % 0.0 mm
21:52 12.4 °C 6.7 °C 997.5 hPa SSW 9.7 km/h 27.4 km/h 68 % 0.0 mm
21:57 12.4 °C 6.7 °C 997.5 hPa SE 8.0 km/h 27.4 km/h 68 % 0.0 mm
22:02 12.4 °C 6.4 °C 997.5 hPa South 12.9 km/h 24.1 km/h 67 % 0.0 mm
22:07 12.4 °C 6.4 °C 997.5 hPa South 11.3 km/h 22.5 km/h 67 % 0.0 mm
22:12 12.4 °C 6.4 °C 997.5 hPa SE 8.0 km/h 27.4 km/h 67 % 0.0 mm
22:17 12.4 °C 6.4 °C 997.5 hPa SSE 4.8 km/h 27.4 km/h 67 % 0.0 mm
22:22 12.4 °C 6.4 °C 997.5 hPa SSE 4.8 km/h 27.4 km/h 67 % 0.0 mm
22:27 12.3 °C 6.3 °C 997.5 hPa SSE 11.3 km/h 25.7 km/h 67 % 0.0 mm
22:32 12.2 °C 6.3 °C 997.2 hPa ESE 11.3 km/h 19.3 km/h 67 % 0.0 mm
22:37 12.2 °C 6.3 °C 997.2 hPa SSE 6.4 km/h 17.7 km/h 67 % 0.0 mm
22:42 12.1 °C 6.4 °C 997.5 hPa SSE 8.0 km/h 19.3 km/h 68 % 0.0 mm
22:47 12.1 °C 6.4 °C 997.5 hPa South 11.3 km/h 19.3 km/h 68 % 0.0 mm
22:52 12.1 °C 6.4 °C 997.2 hPa ESE 8.0 km/h 19.3 km/h 68 % 0.0 mm
22:57 12.2 °C 6.3 °C 997.5 hPa SSE 6.4 km/h 19.3 km/h 67 % 0.0 mm
23:02 12.2 °C 6.0 °C 997.2 hPa SSE 6.4 km/h 19.3 km/h 66 % 0.0 mm
23:07 12.1 °C 6.2 °C 997.2 hPa SE 14.5 km/h 20.9 km/h 67 % 0.0 mm
23:12 12.2 °C 6.3 °C 997.2 hPa SE 8.0 km/h 24.1 km/h 67 % 0.0 mm
23:17 12.1 °C 5.9 °C 997.2 hPa ESE 14.5 km/h 25.7 km/h 66 % 0.0 mm
23:22 12.1 °C 5.9 °C 997.2 hPa SE 12.9 km/h 25.7 km/h 66 % 0.0 mm
23:27 12.2 °C 6.0 °C 996.8 hPa SE 12.9 km/h 22.5 km/h 66 % 0.0 mm
23:32 12.2 °C 6.0 °C 997.2 hPa SE 19.3 km/h 22.5 km/h 66 % 0.0 mm
23:37 12.2 °C 6.0 °C 997.2 hPa SSE 9.7 km/h 22.5 km/h 66 % 0.0 mm
23:42 12.1 °C 5.9 °C 997.2 hPa SSE 8.0 km/h 22.5 km/h 66 % 0.0 mm
23:47 12.1 °C 5.9 °C 996.8 hPa SE 6.4 km/h 22.5 km/h 66 % 0.0 mm
23:52 12.1 °C 5.9 °C 996.8 hPa SSE 16.1 km/h 20.9 km/h 66 % 0.0 mm
Meteo18
Compliments of Weather Underground - 4 mb

Script developed by  Jim McMurry - jmcmurry@mwt.net Adapted for the template by  Wim van der Kuil - Leuven-Template.eu

You find our weather info also at:

European Weather Network

Weather Underground

Equipment we use:

Weather-station
Davis Vue

Weather-program
Meteohub

Weather-server
Raspberry PI 2 B+

Provider
1 and 1

Davis Vue

Meteohub

Raspberry PI 2 B+

1 and 1